Weather in Uya

Russia / Republic of Karelia     61°36′21″N   34°39′54″E
temp.,
°C
wind,
m/s
gust,
m/s
humid.,
%
clouds,
%
prec.,
mm/h
press.,
hPa
HPBL,
m
23 october, sat
sat2300:00+4wsw61296100 3.4 981963
03:00+4wsw51096100 5.3 984833
06:00+4nw4797100 1.9 987650
09:00+2n5898100 3.8 991433
12:00+2nne6897100 0.8 995493
15:00+2nne6997100 1.6 998492
18:00+2ne81197100 1.3 1002657
21:00+2ne81191100 2.7 1005860
24 october, sun
sun2400:00+2ne71071100 0.2 10071124
03:00+2nne7972100 0.4 10101051
06:00+2n7974100 0.6 10121053
09:00+1nnw797691 1.1 1014995
12:00+2nnw687586 0.4 10171086
15:00+2nw577218 0.4 10191007
18:000nw48745 0.0 1021503
21:00−1wnw367845 0.0 1022326
25 october, mon
mon2500:00−1w247755 0.0 1023225
03:00−1wsw377599 0.0 1023282
06:00−1ssw4878100 0.0 1022306
09:000ssw4980100 0.0 1020455
12:000sse51193100 0.5 1018543
15:00+1s4998100 2.2 1014468
18:00+2s51297100 2.7 1012479
21:00+6sw61394100 4.2 1010657
26 october, tue
tue2600:00+6sw61395100 1.4 1010628
03:00+6sw61395100 3.1 1009778
06:00+6sw61393100 0.9 1009728
09:00+5sw71395100 1.3 1009642
12:00+5sw71394100 0.0 1009594
15:00+5sw71493100 0.1 1008573
18:00+5sw71492100 0.1 1007555
21:00+5sw71592100 0.4 1006667
27 october, wed
wed2700:00+6sw71494100 0.5 1004919
03:00+7sw61391100 0.8 1003870
06:00+7wsw61286100 0.1 1002761
09:00+6wsw6118795 0.1 1003785
12:00+6w51084100 0.1 1004838
15:00+6w51082100 0.1 1004820
18:00+5w51082100 0.2 1005955
21:00+3wnw7108246 1.1 10061017